Home   Weather   Stellenbosch   Past weeks

Flag for South Africa Past Weather in Stellenbosch, South Africa — Yesterday and Last 2 Weeks

Now
77 °F

Sunny.


Feels Like: 78 °F
Forecast: 57 / 92 °F
Wind: 3 mph from North

Location: Cape Town International Airport

Current Time: Feb 20, 2017 at 10:31:36 am

Latest Report: Feb 20, 2017 at 10:00 am


Visibility: 10 mi

Pressure: 30.01 "Hg

Humidity: 44%

Dew Point: 54 °F

Location of StellenboschLocation

Past Weather in Stellenbosch — Graph

°F

Stellenbosch Temperature Yesterday

Maximum temperature yesterday: 79 °F (at 11:30 am)
Minimum temperature yesterday: 64 °F (at 12:00 am)
Average temperature yesterday: 69 °F

High & Low Weather Summary for the Past Weeks

 TemperatureHumidityPressure
High91 °F (Feb 15, 2:00 pm)94% (Feb 7, 3:00 am)30.15 "Hg (Feb 7, 3:00 am)
Low61 °F (Feb 20, 6:00 am)37% (Feb 17, 1:00 pm)29.68 "Hg (Feb 11, 3:00 am)
Average71 °F66%29.93 "Hg
* Reported Feb 5 9:00 am — Feb 20 9:00 am, Stellenbosch, Weather by CustomWeather, © 2017

Note: Actual official high and low records may vary slightly from our data, if they occured in-between our weather recording intervals... More about our weather records

Advertising

Stellenbosch Weather History for the Previous 24 Hours

Scroll right to see more
 ConditionsComfort  
Time TempWeatherWind HumidityBarometerVisibility
9:00 am
Mon, Feb 20
72 °FPassing clouds.8 mph53%30.01 "HgN/A
8:00 am68 °FPassing clouds.7 mph60%30.01 "HgN/A
7:30 am66 °FPassing clouds.8 mph64%30.01 "HgN/A
7:00 am63 °FPassing clouds.7 mph73%30.01 "HgN/A
6:00 am61 °FClear.5 mph72%29.98 "Hg10 mi
5:00 am64 °FClear.15 mph68%29.98 "Hg10 mi
4:00 am64 °FClear.15 mph64%30.01 "Hg10 mi
3:00 am64 °FClear.18 mph64%30.01 "Hg10 mi
2:00 am66 °FClear.24 mph60%30.04 "Hg10 mi
1:00 am66 °FClear.28 mph60%30.07 "Hg10 mi
12:00 am66 °FClear.26 mph64%30.07 "Hg10 mi
11:00 pm
Sun, Feb 19
66 °FClear.29 mph60%30.07 "Hg10 mi
10:00 pm66 °FClear.30 mph60%30.07 "Hg10 mi
9:00 pm66 °FClear.26 mph60%30.07 "Hg10 mi
8:00 pm68 °FClear.25 mph56%30.07 "Hg10 mi
7:00 pm68 °FPassing clouds.28 mph56%30.07 "HgN/A
6:00 pm70 °FPassing clouds.31 mph53%30.07 "HgN/A
5:00 pm72 °FPassing clouds.33 mph53%30.07 "HgN/A
4:00 pm73 °FSunny.33 mph50%30.07 "Hg10 mi
3:00 pm75 °FSunny.32 mph44%30.09 "Hg10 mi
2:00 pm75 °FSunny.33 mph44%30.09 "Hg10 mi
1:00 pm77 °FSunny.30 mph44%30.09 "Hg10 mi
12:00 pm75 °FSunny.25 mph47%30.09 "Hg10 mi
11:30 am79 °FPassing clouds.23 mph42%30.12 "HgN/A
11:00 am75 °FPassing clouds.32 mph44%30.12 "HgN/A
10:00 am73 °FSunny.23 mph47%30.12 "Hg10 mi
Weather by CustomWeather, © 2017

See weather overviewHow to use our weather pages